sat.trackr.live / text

‹ back to catalog

STARLINK-11738 [DTC]

NORAD 64375 · 2025-127F

PAYLOAD ACTIVE UNKNOWN

§ Identity

Operator
Country
US
Launch date
2025-06-13
Launch site
AFETR
Launch vehicle
Mass (kg)
RCS (m²)

Purposes: comms

External: N2YO · Heavens-Above · Gunter

§ Orbital elements

Epoch: 2026-09-20T22:17:48.872832Z

Period
91.67 min
Inclination
42.9990°
Eccentricity
0.0000680
Mean motion
15.70872737 rev/d
Perigee alt
355.9 km
Apogee alt
356.9 km
Semi-major
6,734.5 km
B*
1.1315e-3
RAAN
348.1303°
Arg perigee
311.2254°
Mean anomaly
48.8555°
Rev number
7,420

§ Raw data

STARLINK-11738 [DTC]1 64375U 25127F   26263.92903788  .00147540  00000+0  11315-2 0  99902 64375  42.9990 348.1303 0000680 311.2254  48.8555 15.70872737 74209

JSON: /api/v1/satellites/64375 · /tle

For live sub-satellite position, see the globe view (requires WebGL).

§ Visibility from observer

Set your observer location to see the next 7 days of passes ≥ 10°. The values pass through the URL so the page stays shareable.

No JS? Fill the form by hand. The geolocation button needs JavaScript.